Temp
26 26 26 26 26 26 26 26 26 26 27 27 27 27 27 27 27 27 27 27 27 27 27 27 27 27 26 26 26 26 26 26 26 26 26 26 26 26 26 26 26 26 25 25 26 26 26 26 26 26 26 26 26 26 26 26 26 26 26 26 26 25 26 25 24 24 25 26 25 25 25 25 25 25 25 26 26 26 26 26 26 26 27 27 26
26 26 26 26 26 26 26 26 26 27 27 27 27 27 27 27 27 27 28 28 28 28 27 27 27 27 26 26 26 26 26 26 26 26 26 26 26 26 26 26 26 26 26 25 26 26 26 26 26 26 26 26 26 26 26 26 26 26 26 26 26 26 25 25 25 24 25 25 25 25 25 25 25 25 25 25 26 26 26 26 25 26 26 26 26
27 27 27 26 27 27 27 27 27 27 27 27 27 27 27 27 27 28 28 28 28 28 27 27 27 27 27 26 26 27 27 27 27 26 26 26 26 26 26 26 26 26 26 26 26 26 26 26 26 26 26 26 26 26 25 25 26 25 26 26 25 26 25 25 25 25 24 25 25 25 25 25 25 25 25 25 25 25 25 25 25 25 25 25 26
27 27 27 27 27 27 27 27 27 27 27 27 27 27 27 27 27 28 28 28 28 28 28 27 27 27 27 27 27 27 27 27 27 26 26 26 26 26 26 26 26 26 26 25 25 25 25 25 25 25 25 26 26 26 26 26 25 25 26 26 25 25 25 25 25 25 24 24 24 25 25 25 25 25 25 25 25 25 25 25 25 25 25 25 25
28 28 27 27 27 27 27 27 27 27 27 27 27 27 28 28 28 28 28 28 28 28 28 28 27 27 27 27 27 27 27 27 26 26 26 26 26 26 26 26 26 25 25 25 25 25 25 26 26 25 25 25 25 26 26 25 25 25 26 25 25 25 25 25 25 25 24 24 24 25 25 25 25 25 25 24 25 25 25 25 25 25 25 25 24
28 28 28 28 27 28 28 28 27 27 27 27 27 28 28 28 28 28 28 28 28 28 28 28 27 27 27 27 27 27 26 26 26 26 26 26 26 26 26 26 26 26 25 25 25 26 26 26 26 25 25 25 25 25 26 25 25 25 25 25 25 25 25 25 25 25 24 24 24 24 25 25 24 25 24 24 24 25 25 25 25 25 25 25 24
28 28 28 28 28 28 28 28 28 28 27 28 28 28 29 29 29 28 28 28 28 27 28 28 28 27 27 27 27 27 26 26 26 26 26 26 25 25 26 25 25 25 25 25 25 26 26 26 25 25 25 25 25 25 25 25 25 25 25 25 25 25 24 24 24 24 24 24 24 24 24 24 24 24 24 24 24 24 24 24 24 25 25 25 24
28 28 28 28 28 28 28 28 28 28 28 28 28 28 29 29 29 29 28 28 27 27 27 27 27 26 25 24 25 25 25 25 26 26 26 25 25 25 25 25 25 25 25 25 25 25 25 25 25 25 25 25 25 25 25 24 24 24 24 24 24 24 24 24 24 24 23 23 23 23 24 24 24 24 24 24 24 24 24 23 24 24 24 25 25
28 28 28 28 28 28 28 28 28 28 28 28 28 28 28 28 29 28 28 28 28 26 26 26 25 25 24 24 23 24 25 25 25 25 25 25 25 25 25 25 25 25 25 25 25 25 25 25 25 25 25 25 24 24 24 24 24 24 24 24 24 23 23 23 23 24 23 23 23 23 23 23 24 24 24 24 24 24 24 23 23 24 24 24 25
28 28 28 28 28 28 28 28 28 28 28 28 28 28 28 28 28 28 28 28 27 27 26 26 25 25 25 24 24 24 25 25 25 25 25 25 25 25 25 25 25 25 26 25 25 25 25 25 25 25 24 24 24 24 24 23 23 23 23 23 23 23 23 23 23 23 23 23 23 23 23 23 23 24 24 24 24 24 24 23 23 23 23 23 24
28 28 28 28 28 28 28 28 28 28 28 28 28 28 28 28 28 27 28 27 27 26 26 26 26 26 25 24 24 24 25 25 25 25 25 25 25 25 25 25 25 25 25 25 25 25 25 25 25 24 24 24 24 24 23 23 23 23 23 23 22 22 22 22 22 23 22 22 23 23 23 23 23 24 23 24 24 23 24 23 23 23 22 22 23
24 25 27 27 25 25 26 26 27 28 27 27 27 27 27 28 28 27 27 27 26 26 26 25 25 25 25 25 24 24 25 25 25 25 25 25 25 25 25 25 25 25 25 25 24 24 24 24 24 23 23 23 23 23 23 23 23 23 22 22 22 22 22 22 22 22 22 22 22 22 22 22 22 23 23 22 22 22 23 23 22 22 22 22 22
22 21 22 23 23 22 23 23 25 26 27 27 27 27 27 27 27 27 27 26 26 26 25 25 25 25 25 25 24 24 24 24 24 24 24 24 24 24 24 25 24 24 24 24 24 24 23 23 22 22 22 23 22 22 22 22 22 22 22 22 22 22 23 22 22 22 22 21 21 21 21 21 21 22 22 21 21 21 21 22 21 21 21 21 21
24 22 20 20 23 24 24 24 24 25 25 26 26 26 26 26 26 26 26 26 25 25 25 25 25 24 24 24 24 23 23 23 23 23 23 24 24 24 24 24 24 23 23 23 23 23 23 23 22 22 21 21 21 21 21 21 21 22 22 22 22 22 22 22 22 21 21 21 20 20 20 20 20 21 21 21 21 21 21 21 20 20 20 21 21
23 22 20 20 22 25 25 25 25 24 24 25 25 25 25 25 25 25 25 25 25 25 24 24 24 23 23 24 23 22 22 22 22 22 23 23 23 24 24 23 23 23 23 23 23 23 23 22 22 21 21 21 21 21 21 21 21 21 22 22 22 21 21 20 20 20 20 20 20 20 20 20 20 20 20 20 20 20 21 20 20 20 20 20 20
21 21 22 22 24 24 24 24 24 23 23 24 24 24 24 24 24 24 24 23 23 23 23 23 23 23 22 22 22 21 21 21 22 22 22 23 23 23 23 23 22 22 22 22 22 22 22 21 21 21 21 21 21 21 21 21 21 21 21 21 21 20 20 19 19 19 19 19 19 19 19 19 19 19 20 20 20 20 20 20 20 20 19 19 19
20 21 22 23 24 23 23 23 23 22 22 23 23 23 23 23 23 23 23 22 22 22 22 22 22 22 21 21 21 21 21 21 21 21 22 22 23 23 23 22 22 22 22 21 21 21 21 21 21 21 21 22 22 22 21 21 21 21 21 20 20 19 19 19 19 19 19 19 19 19 19 19 19 19 19 20 20 20 19 20 20 20 19 19 19
20 21 22 23 22 22 22 22 21 21 21 21 21 21 21 22 22 22 21 20 20 21 21 20 20 20 21 20 20 20 20 20 20 20 21 21 22 22 22 22 22 22 21 21 20 20 21 21 21 21 22 22 22 21 21 21 21 21 20 19 19 18 19 19 19 19 19 19 19 18 18 18 18 19 19 19 19 19 19 19 19 19 19 19 19
20 20 21 21 20 20 20 20 20 20 20 20 21 21 21 21 21 21 20 20 20 20 20 19 19 19 19 19 19 19 19 19 19 20 20 20 21 21 21 22 22 21 21 20 20 20 21 21 21 21 21 21 21 21 21 21 21 20 20 19 18 18 18 18 18 18 18 18 18 18 18 18 18 18 19 19 19 19 19 19 19 19 19 19 19
20 20 20 20 20 19 19 19 20 20 20 20 21 21 21 21 20 20 19 19 19 18 18 18 17 17 16 17 17 17 17 17 18 19 19 18 19 20 21 21 21 21 21 20 20 20 20 20 21 21 21 20 20 20 20 20 20 19 19 19 18 18 18 18 18 18 18 18 18 18 18 18 18 19 19 19 19 19 19 18 18 18 18 18 19
21 20 20 20 19 19 19 19 20 20 20 20 20 20 21 21 20 19 18 18 18 17 16 16 16 15 15 16 16 16 16 16 16 17 17 17 18 19 20 20 21 21 21 21 20 19 19 20 20 20 20 20 20 20 20 20 19 19 19 18 18 18 18 18 18 18 18 18 18 18 18 18 18 18 18 19 19 19 19 18 18 18 18 18 19
20 20 19 19 18 18 18 19 19 19 20 20 20 19 19 19 19 18 18 18 17 17 16 16 16 15 16 16 16 16 16 15 15 16 16 17 17 18 19 20 20 20 21 20 20 19 19 20 20 20 19 19 20 20 19 19 19 19 19 19 18 18 18 18 18 18 18 18 18 18 18 18 18 18 18 18 18 18 18 18 18 18 18 18 19
19 19 18 18 18 18 18 19 19 19 19 19 19 19 19 19 18 18 18 17 17 16 16 16 16 16 16 16 16 16 16 16 16 16 17 17 18 18 18 19 19 20 20 19 19 19 19 20 20 19 19 19 19 19 19 19 19 19 19 19 19 19 18 18 18 18 18 18 18 18 17 17 18 18 17 17 18 18 18 18 18 18 18 18 18
18 18 18 18 17 17 18 18 18 18 19 19 18 18 18 18 18 18 18 17 17 16 16 16 16 16 16 16 16 16 16 16 17 17 17 18 18 18 18 18 19 19 19 19 19 19 19 20 20 19 19 19 19 19 19 19 19 19 19 19 19 19 18 18 18 18 18 18 17 17 17 17 17 17 17 17 17 18 18 18 18 18 18 18 18
17 17 17 17 17 17 17 18 18 18 18 18 18 18 18 18 18 17 18 17 17 16 16 16 16 16 16 16 16 16 16 17 17 17 17 18 18 18 18 18 19 19 19 19 19 19 19 19 20 19 19 20 20 20 20 19 19 19 18 18 18 18 18 18 18 18 17 17 17 17 17 17 17 17 17 17 17 17 17 18 18 18 18 18 18
17 17 17 17 17 17 17 17 17 18 18 17 17 17 17 17 17 17 17 17 17 17 17 17 17 17 16 16 16 16 16 17 17 17 17 18 18 18 18 19 19 20 19 19 19 19 19 20 20 20 20 20 20 20 20 20 19 19 18 18 18 18 17 17 17 17 17 17 17 17 17 17 17 17 17 17 17 17 17 17 18 18 18 18 18
17 17 17 17 17 18 18 18 18 18 18 18 18 18 18 18 18 17 18 18 18 17 17 17 17 17 16 16 16 17 17 17 17 17 18 18 18 18 19 19 19 20 20 19 19 20 20 21 21 21 21 20 20 20 20 19 19 18 18 18 18 18 18 17 17 17 17 17 17 17 17 17 17 17 17 17 17 17 17 17 17 17 17 17 17
17 17 17 17 18 18 18 18 18 18 18 18 18 18 19 19 18 18 18 18 18 18 18 17 17 17 17 17 17 17 17 17 17 17 17 18 18 18 19 19 19 19 19 20 20 20 21 21 21 21 21 21 20 20 19 19 18 18 18 18 18 18 17 17 17 17 17 17 17 17 16 16 17 16 17 17 17 17 17 17 17 17 17 17 17
18 18 18 18 18 18 18 19 19 18 18 18 18 18 18 19 19 19 18 18 19 19 18 18 18 17 18 17 17 17 17 17 17 17 17 18 18 18 18 18 18 19 19 20 20 21 21 21 21 21 21 20 19 19 19 18 18 18 17 17 17 17 17 17 17 16 16 16 16 16 16 16 16 16 16 16 16 16 17 17 17 17 17 17 17
19 19 18 18 18 18 18 18 18 18 18 18 18 18 18 18 19 19 18 18 18 18 18 18 18 18 18 18 18 17 17 17 17 18 18 18 18 18 18 18 18 19 19 20 20 20 20 20 20 20 20 19 19 18 18 18 17 17 16 16 16 16 16 16 16 16 16 16 16 16 15 15 15 15 15 15 16 16 16 16 16 16 17 17 17
19 18 18 18 18 18 18 18 18 18 18 18 18 18 18 18 18 18 18 18 18 19 19 18 18 18 18 18 18 18 18 18 18 18 18 18 18 18 18 18 19 19 19 20 19 19 19 19 19 18 18 18 17 17 17 17 17 16 16 15 15 15 16 16 16 16 15 15 15 15 15 15 14 14 15 14 15 15 15 15 15 15 16 16 16
19 19 19 18 18 18 18 18 18 18 18 19 19 19 18 18 18 18 18 19 19 19 19 19 19 19 19 18 18 18 18 18 18 18 18 18 19 19 18 18 19 19 19 19 19 19 19 18 18 18 18 17 17 17 17 17 16 16 16 16 16 16 16 15 16 16 15 14 14 14 14 14 14 14 14 14 14 14 14 14 14 14 15 15 14
19 19 19 19 19 19 19 19 19 18 19 19 19 19 19 19 18 18 18 18 19 19 19 18 18 18 18 18 18 18 18 18 18 18 18 18 19 19 19 18 19 19 19 19 18 18 18 18 18 18 18 17 17 17 17 16 16 16 16 16 16 16 15 15 15 15 15 14 14 14 14 13 13 13 13 13 13 13 13 13 13 13 13 14 14
19 19 19 19 19 19 19 19 19 19 19 19 19 19 19 19 19 19 18 18 18 18 18 18 18 18 18 18 18 18 18 18 18 18 18 18 18 19 19 19 19 19 19 19 18 18 18 18 18 18 17 17 17 17 16 16 16 16 16 16 15 15 15 15 15 15 14 14 14 14 14 13 13 13 13 12 13 13 13 12 12 13 13 13 13
19 19 19 19 19 19 19 19 20 20 20 20 19 19 19 19 19 19 19 19 19 18 18 17 18 18 18 18 18 17 17 17 18 18 18 18 18 18 19 19 19 19 19 19 18 18 18 18 17 17 17 17 16 16 16 16 16 16 16 16 15 15 15 15 15 14 14 14 14 13 13 13 12 12 12 12 12 12 12 12 12 12 13 13 13
19 19 19 19 19 19 19 19 19 19 20 20 20 20 20 19 19 19 19 19 19 19 18 17 17 18 18 17 17 17 17 17 17 17 18 18 18 18 18 18 18 18 18 18 18 18 18 17 17 17 17 16 16 16 15 15 15 15 15 15 15 15 15 14 14 14 13 13 13 13 12 12 12 12 12 12 12 12 12 12 12 12 12 12 12
19 19 19 19 19 19 19 19 19 19 20 20 19 19 19 19 19 19 19 19 19 18 18 17 17 17 17 17 17 17 17 18 18 18 18 18 18 18 18 18 18 18 18 18 18 17 17 17 17 16 16 16 15 15 15 15 15 15 15 15 14 14 14 13 13 13 12 12 12 11 11 11 11 11 11 11 11 12 12 12 12 12 12 12 12
19 19 19 19 19 19 19 19 19 19 19 19 19 19 19 19 19 19 19 19 19 18 17 17 17 17 17 17 17 18 17 17 17 17 17 17 17 17 17 17 17 17 17 17 17 17 16 16 16 16 15 15 15 15 15 14 14 14 14 14 13 13 13 12 11 11 11 11 10 10 10 10 11 11 11 11 11 11 11 12 12 12 12 12 12
19 19 19 19 19 19 19 19 18 18 18 18 18 18 18 18 19 19 19 19 18 18 17 17 17 17 17 17 17 17 17 16 16 16 16 16 15 16 16 16 16 16 16 16 16 16 16 15 15 15 15 14 14 14 14 13 13 13 13 13 12 12 11 11 10 10 10 10 9 9 9 9 10 10 10 10 10 10 11 11 11 11 11 11 11
19 19 19 19 18 18 18 18 18 18 18 18 18 18 18 18 18 18 18 18 18 18 17 17 16 16 16 16 16 16 16 15 14 15 15 14 14 15 15 15 14 14 15 15 15 14 14 14 14 14 13 13 13 13 13 13 12 12 12 12 11 11 10 10 9 9 9 9 9 9 9 9 9 9 10 10 9 9 10 10 10 10 10 10 10
18 18 18 18 18 18 18 17 17 17 17 17 18 18 18 18 18 18 18 18 18 18 17 16 15 15 15 15 15 15 14 14 13 13 13 13 13 13 13 13 13 14 14 13 13 13 13 13 13 13 12 12 12 12 11 11 12 11 11 11 10 10 9 9 8 8 7 7 7 7 8 8 8 8 9 9 8 8 9 9 9 9 9 9 10
18 18 18 18 17 17 17 17 17 17 17 17 17 18 17 18 18 17 17 17 17 17 16 15 15 15 14 14 14 14 13 13 13 12 12 12 12 12 12 12 12 13 13 12 12 12 12 12 12 12 12 11 11 11 11 10 10 10 10 10 9 8 8 7 7 6 6 6 6 6 6 6 7 7 7 8 7 8 8 8 8 8 8 9 9
18 17 17 17 17 17 17 17 17 17 17 17 17 17 17 17 17 17 17 17 16 16 15 14 14 14 13 13 13 13 12 12 12 12 11 11 11 11 11 11 11 12 12 11 11 11 11 11 11 10 10 10 10 10 10 9 9 9 9 9 8 7 7 6 6 6 6 6 6 5 5 5 5 6 6 6 7 7 7 7 8 8 8 8 8
17 17 17 17 17 17 17 17 17 17 17 17 17 17 17 17 16 16 16 16 16 15 14 14 13 13 13 12 12 12 11 11 11 11 11 10 10 10 10 10 10 11 11 10 10 10 10 9 9 9 9 9 9 9 9 9 8 8 8 8 7 7 6 6 5 5 5 5 5 5 4 4 4 5 5 6 6 6 7 7 7 7 7 7 8
17 17 17 17 16 16 16 16 16 17 17 17 17 17 16 16 16 16 16 16 15 15 14 13 13 12 12 12 11 11 11 10 10 10 10 10 10 9 9 9 10 10 10 10 10 9 9 9 9 9 9 8 8 8 8 8 7 7 7 6 6 5 5 5 5 4 4 4 4 4 4 4 4 5 5 5 6 6 6 6 7 7 7 7 7
17 17 17 16 16 16 16 16 16 16 16 16 16 16 16 16 16 16 15 15 15 14 13 13 12 12 12 11 11 11 10 10 10 10 9 9 9 9 9 9 9 9 9 8 9 9 8 8 8 8 7 7 7 7 7 6 6 6 6 5 5 5 5 5 4 4 4 4 4 4 4 4 4 5 5 5 5 6 6 6 6 6 7 7 7
17 17 17 17 16 16 16 16 16 16 16 16 16 16 16 15 15 15 15 15 14 14 13 12 12 12 11 11 11 10 10 10 9 9 9 9 8 8 8 8 8 7 7 7 7 7 7 7 6 6 6 6 6 6 5 5 5 5 5 5 5 5 5 4 4 4 4 3 4 4 4 4 5 5 5 5 5 6 6 6 6 6 6 7 7
17 17 17 17 16 16 16 16 16 16 16 16 16 15 15 15 15 14 14 14 14 13 13 12 12 11 11 11 10 10 10 9 9 9 9 9 8 8 7 7 7 7 7 6 6 6 6 5 5 6 5 5 5 5 5 5 5 5 5 5 5 4 4 4 4 4 3 4 4 4 4 4 5 5 5 5 5 6 6 6 6 6 6 6 7
17 17 16 16 16 16 16 16 16 16 16 16 15 15 15 14 14 14 14 13 13 13 12 12 12 11 11 10 10 10 10 9 9 9 9 9 8 8 7 7 7 6 7 6 6 6 5 5 5 5 5 5 5 5 5 5 5 5 5 4 4 4 4 4 4 4 3 4 4 4 4 5 5 5 5 5 5 6 6 6 6 6 6 7 7
16 16 16 16 16 16 16 15 16 16 15 15 15 15 14 14 14 14 13 13 13 12 12 11 11 11 10 10 10 9 9 9 9 8 8 8 8 7 7 7 6 6 6 6 6 6 5 5 5 5 5 5 5 5 5 5 5 4 4 4 4 4 4 4 4 4 4 4 4 4 4 5 5 5 5 5 5 5 6 6 6 6 7 7 7
16 16 16 15 15 15 15 15 15 15 15 15 14 14 14 14 13 13 13 12 12 12 11 10 10 10 10 9 9 9 9 8 8 8 8 7 7 7 7 7 7 7 6 6 6 6 6 6 5 5 5 5 5 5 5 5 4 4 4 4 4 4 4 4 4 4 4 4 4 4 4 4 5 5 5 5 5 5 5 6 6 6 7 7 7
Height
810 812 814 815 817 818 820 822 823 825 826 827 828 828 830 831 831 833 833 834 834 835 836 837 838 839 839 840 841 842 842 843 843 844 844 844 845 845 845 845 846 846 846 846 846 846 845 845 845 844 844 844 844 844 843 842 842 842 842 842 841 842 841 840 840 839 837 836 835 834 834 833 831 830 829 827 826 826 825 824 823 821 821 820 820
808 810 812 814 816 817 818 820 822 824 825 826 826 827 828 829 830 831 831 832 833 833 834 835 836 837 838 838 839 840 840 841 842 842 842 843 843 844 844 844 844 844 844 845 845 845 844 844 844 844 844 844 844 843 842 842 842 842 841 841 840 840 840 839 839 838 836 835 834 833 832 831 830 829 828 827 826 825 824 823 822 822 821 820 820
805 808 810 812 814 815 817 818 820 822 823 824 825 826 827 828 829 829 830 831 831 832 833 833 834 835 836 836 837 838 839 839 840 841 841 841 842 842 843 843 843 843 843 843 844 844 844 843 843 843 843 843 843 842 842 841 841 841 840 840 839 839 838 838 838 837 835 834 833 832 831 830 829 828 827 826 825 824 823 823 822 821 821 820 820
803 805 808 810 812 814 815 816 818 820 821 822 823 824 826 826 827 828 828 829 830 830 831 832 832 833 834 834 835 836 837 837 838 839 840 840 841 841 841 842 842 842 842 842 843 843 843 843 842 842 842 842 842 842 842 841 840 840 840 839 838 838 837 836 836 835 834 833 832 830 829 829 828 827 826 825 824 823 823 822 822 821 820 819 819
801 803 805 808 810 812 813 814 816 817 819 820 821 823 824 824 825 826 827 828 828 829 829 830 831 831 832 832 833 834 834 835 836 837 838 839 839 840 840 841 841 842 842 842 842 842 842 842 842 841 841 841 841 841 841 840 840 839 839 838 837 837 836 835 835 834 833 832 831 829 828 827 826 826 825 824 823 822 822 821 821 820 819 819 818
798 800 803 805 807 809 811 812 813 815 816 818 819 820 821 822 823 824 825 826 827 827 827 828 828 829 830 830 831 832 833 834 835 836 837 837 838 839 839 840 840 841 841 841 841 841 841 841 841 841 840 840 840 840 840 840 839 838 838 837 836 835 835 834 833 833 832 831 830 828 827 826 825 824 824 823 822 821 820 820 820 819 818 818 818
796 798 801 803 805 807 808 809 811 812 814 815 817 818 819 820 821 822 823 824 825 826 826 825 826 826 827 828 829 830 831 832 833 834 835 836 837 838 838 839 839 839 840 841 841 840 840 840 840 839 839 839 839 839 839 839 839 838 837 837 836 835 834 833 833 832 831 830 829 828 826 825 824 823 823 822 821 820 820 819 819 818 817 816 816
795 796 798 801 803 804 806 807 808 810 812 814 815 816 817 819 819 820 821 822 823 825 825 825 824 825 827 829 830 830 831 832 833 833 834 835 835 836 837 837 838 838 839 839 839 840 839 839 839 839 839 839 838 838 838 838 837 837 836 836 835 835 834 833 832 831 830 829 828 827 826 825 824 823 822 822 821 820 819 819 818 817 816 815 815
793 794 796 798 801 802 804 806 808 809 810 812 813 815 816 817 818 819 820 821 822 823 823 824 824 825 828 830 831 830 831 833 832 832 833 833 834 835 836 836 837 837 838 838 839 839 839 839 839 839 838 838 838 837 837 836 836 835 835 835 834 834 833 832 831 830 829 828 826 826 825 824 823 822 822 821 821 820 819 818 817 816 816 814 813
791 792 794 796 798 801 803 805 806 808 809 810 812 813 815 816 817 818 818 820 820 820 821 823 824 825 826 828 829 829 829 830 830 831 832 832 833 834 835 836 836 837 837 837 838 838 838 838 838 838 838 837 837 836 836 836 835 834 834 833 833 832 831 830 829 828 828 826 825 824 823 821 821 821 821 820 820 819 818 817 816 816 815 814 813
789 791 792 795 797 799 801 803 805 806 808 809 811 812 813 814 816 817 818 819 819 819 820 821 822 824 825 826 828 828 828 829 829 830 830 831 832 833 834 835 835 836 836 836 837 837 837 837 837 836 836 836 836 835 835 835 834 834 833 832 832 831 829 828 827 826 826 825 823 823 821 820 819 820 819 818 818 817 817 816 816 815 815 814 813
791 792 792 793 797 799 801 802 804 805 806 808 810 811 812 813 815 816 817 817 818 819 820 821 821 822 823 824 826 827 827 828 828 828 829 829 830 831 832 834 834 835 835 835 835 835 835 835 835 835 835 834 834 834 834 834 833 832 832 831 830 830 828 827 826 825 824 823 822 821 820 819 818 818 817 816 816 815 815 815 815 814 814 813 812
793 796 795 793 795 800 803 805 805 805 806 808 809 810 811 812 814 815 816 816 817 818 819 820 821 821 822 823 824 825 826 827 826 827 827 827 829 830 831 832 833 833 834 834 834 834 834 834 834 834 834 833 833 832 832 832 831 831 830 829 829 828 827 826 825 823 822 821 820 819 819 819 817 816 816 815 814 813 812 813 813 812 812 812 811
790 795 798 797 796 798 802 804 805 806 806 808 809 810 811 812 813 814 815 814 815 816 818 819 820 821 821 822 822 823 824 825 825 825 826 826 827 828 829 831 831 832 832 833 833 833 832 832 832 832 832 832 831 831 831 830 830 829 828 827 826 825 824 823 822 822 821 820 819 818 817 817 816 814 814 813 812 811 810 810 810 810 810 810 809
787 790 796 800 799 796 796 798 801 804 806 807 809 810 811 811 812 813 813 813 813 814 816 818 819 819 820 821 821 822 823 823 824 824 825 825 826 827 828 829 829 830 830 831 831 831 831 831 831 831 831 831 830 830 830 829 828 827 826 825 824 823 822 821 821 820 819 818 817 816 815 814 814 812 812 811 810 810 809 808 808 808 807 806 805
787 788 792 796 796 794 794 795 798 802 805 806 807 809 810 811 811 811 811 811 812 813 815 816 817 818 819 820 820 821 822 822 823 824 824 824 825 825 826 827 828 828 829 830 830 830 831 831 831 831 831 830 830 829 829 828 826 825 824 823 822 822 821 820 820 819 818 817 816 815 813 812 811 810 809 809 808 808 807 806 806 805 804 803 802
787 789 790 792 792 792 793 794 796 800 804 805 807 808 809 810 810 810 810 810 811 812 812 813 814 816 819 820 819 820 821 822 822 823 823 823 823 823 824 825 826 827 828 829 830 830 831 831 831 831 830 830 829 829 828 827 825 824 823 822 821 821 820 819 819 818 817 816 815 814 812 810 809 808 807 806 805 805 804 804 803 803 803 802 802
786 786 787 789 790 791 792 794 797 800 803 805 807 808 808 809 809 809 810 810 809 811 811 810 812 815 818 820 820 820 820 821 822 822 823 823 822 823 824 825 826 827 828 829 830 830 831 831 831 831 830 829 829 828 827 826 825 824 823 822 821 820 819 818 818 816 815 814 813 812 810 809 808 806 805 804 803 803 803 802 802 802 802 802 801
783 784 786 788 791 793 794 796 798 800 802 804 806 807 807 808 808 809 810 810 810 811 812 811 813 816 818 819 820 820 821 821 821 821 821 822 822 822 823 824 825 827 827 828 830 831 831 831 831 831 830 829 828 827 826 825 824 823 823 822 821 821 820 819 817 816 815 813 812 811 809 808 806 805 804 803 802 801 801 801 801 802 801 801 800
781 783 785 787 791 794 798 799 799 800 802 803 804 806 806 807 808 809 811 811 809 810 812 813 814 817 820 820 820 820 821 822 822 820 820 822 822 821 823 824 826 827 827 828 830 831 832 832 831 831 830 829 828 827 826 825 824 824 823 823 822 822 821 820 818 817 815 814 812 811 809 807 806 804 803 802 801 800 800 800 800 801 800 800 800
781 784 786 788 792 797 800 800 798 798 800 801 802 804 804 806 807 808 811 813 810 809 814 818 819 820 822 823 822 822 823 823 823 823 823 824 823 823 823 825 826 827 827 828 829 831 832 832 832 831 830 829 828 827 826 826 825 825 824 824 824 823 822 820 819 817 816 815 813 812 810 808 806 804 803 801 799 799 799 799 799 800 800 799 798
783 786 789 792 796 800 802 800 797 797 799 800 801 803 804 806 807 807 811 814 812 810 815 821 823 823 824 825 824 823 824 825 825 825 826 826 825 825 825 826 828 829 828 828 829 830 832 832 832 832 831 830 829 828 827 827 826 826 825 825 825 824 823 822 820 818 817 815 814 812 810 809 807 805 804 802 800 800 800 800 800 800 800 799 798
786 788 791 795 798 800 801 800 798 798 800 800 802 804 805 807 808 809 812 813 813 813 816 821 824 825 826 827 826 825 825 826 828 828 828 826 826 826 827 829 830 829 828 828 829 830 831 832 832 832 831 830 830 829 828 827 827 827 826 826 826 825 824 823 822 820 818 816 815 813 812 810 809 808 806 805 804 803 803 802 802 801 801 801 800
788 790 794 797 800 801 801 801 801 802 803 803 804 806 808 809 810 812 813 814 815 817 819 822 825 827 828 828 828 828 826 827 829 830 829 827 827 828 829 830 830 829 828 829 829 830 830 831 831 831 831 830 829 829 828 828 828 828 827 827 826 826 825 825 823 821 819 818 816 816 815 813 812 811 810 809 808 807 806 805 804 804 804 804 803
792 794 797 800 801 802 803 803 805 805 806 807 808 809 811 812 813 814 815 816 818 820 822 824 826 828 828 827 828 829 829 828 830 831 830 829 829 829 830 830 829 828 828 829 830 830 830 830 830 830 830 830 829 829 829 829 829 829 828 828 827 827 826 826 824 823 822 821 820 819 818 816 815 815 814 812 811 810 809 808 807 807 806 806 805
796 798 800 802 803 804 805 806 808 809 810 812 812 813 814 814 816 817 817 818 821 822 824 826 827 828 829 829 830 831 831 831 831 831 830 830 830 830 830 829 829 829 829 829 829 829 829 829 829 829 829 829 828 829 829 830 830 830 830 829 828 827 826 826 825 824 824 824 823 822 821 820 819 818 816 814 813 812 811 810 810 809 808 807 806
800 801 802 804 805 805 806 807 810 812 813 814 815 816 816 816 817 818 819 820 822 824 826 827 828 829 830 831 831 832 832 832 831 830 830 830 829 829 829 829 829 829 829 829 829 828 828 828 828 828 828 828 828 828 829 830 831 831 830 830 829 828 827 827 826 826 826 826 825 824 823 822 821 819 818 816 815 814 813 812 811 810 810 809 808
802 803 805 806 806 807 808 810 812 814 815 816 817 818 818 818 818 819 821 822 823 825 827 828 829 830 831 831 832 832 832 832 831 831 831 830 829 829 829 829 830 829 829 829 829 828 828 827 826 826 826 826 827 829 829 831 831 831 831 830 830 829 828 827 827 827 828 828 827 826 825 823 822 821 820 819 817 816 815 814 813 812 811 810 809
804 806 807 808 809 810 812 813 814 816 817 817 818 818 819 819 820 821 823 824 825 826 828 829 830 831 831 832 833 832 832 832 832 832 832 831 830 830 830 830 830 830 829 829 829 828 827 826 826 826 826 826 828 830 831 831 832 832 832 832 831 830 829 829 828 829 829 828 828 827 826 825 824 823 822 821 819 818 817 816 815 813 812 811 810
806 808 809 811 813 814 814 816 817 817 818 818 819 819 820 821 822 823 824 826 827 828 829 830 831 831 832 832 833 833 833 833 833 833 833 832 832 832 831 831 831 830 830 830 829 829 828 828 828 828 828 829 830 831 832 833 833 833 833 832 832 831 831 831 831 831 831 830 829 829 828 827 826 824 823 822 821 820 819 817 816 815 813 812 811
808 810 811 813 815 816 817 818 819 819 820 820 820 821 822 823 824 825 826 827 828 829 830 831 832 832 833 833 834 834 835 835 835 835 834 834 833 833 833 833 832 832 832 831 830 830 830 830 830 831 831 832 832 833 834 833 834 834 833 833 832 832 832 833 833 832 832 831 830 830 829 828 828 826 825 824 823 821 820 818 817 816 815 814 813
811 812 814 816 817 818 819 820 820 821 821 822 822 823 823 824 825 827 828 828 829 830 831 832 833 834 834 835 835 836 836 836 836 836 835 835 835 834 834 834 833 833 833 832 832 832 831 831 832 832 833 833 834 834 834 834 834 834 834 834 834 834 834 834 834 833 833 832 831 831 830 830 829 828 827 826 824 823 821 820 819 818 816 815 815
813 814 816 817 818 819 820 820 821 822 822 823 824 824 825 826 827 828 829 830 831 832 832 833 834 835 836 836 837 837 837 837 837 837 836 836 836 836 836 835 834 833 833 833 833 833 833 833 833 833 834 834 834 835 835 835 835 835 835 835 835 835 835 835 835 834 834 833 833 832 832 831 830 829 828 827 826 825 823 822 821 819 818 817 816
815 816 818 819 820 820 821 821 822 823 824 825 825 826 827 827 828 828 830 831 832 832 833 834 835 836 837 837 838 838 838 838 838 838 838 837 837 837 837 836 835 834 834 834 834 834 834 834 834 835 835 835 835 835 836 836 836 836 836 836 836 836 836 836 835 835 834 834 834 833 833 832 831 830 829 828 827 826 825 823 822 821 820 819 818
817 818 819 820 821 821 822 823 823 824 825 826 826 827 828 829 829 830 831 831 832 832 834 835 836 837 838 838 839 839 839 840 840 840 839 839 838 838 837 837 836 836 835 835 835 835 834 835 835 836 836 836 836 836 837 837 837 837 837 837 837 837 837 836 836 835 835 835 835 834 833 833 832 831 830 829 828 827 826 824 823 822 821 820 818
819 820 821 822 822 823 824 824 825 825 826 827 828 829 829 830 831 831 832 832 833 833 834 836 837 838 839 840 840 840 840 840 840 840 840 840 839 839 838 837 837 837 836 836 836 835 835 836 836 836 837 837 837 837 838 838 838 837 837 837 837 837 837 837 837 837 836 836 836 835 834 833 832 832 831 830 829 828 826 825 824 823 821 820 819
822 823 823 824 824 825 825 826 826 827 827 828 829 829 830 831 832 832 833 834 834 834 835 837 838 839 840 840 841 841 841 841 841 841 841 840 840 839 839 838 838 838 837 837 836 836 836 836 837 837 838 838 838 838 838 838 838 838 837 837 838 838 838 838 838 837 837 836 836 835 835 834 833 832 831 830 829 828 827 825 824 823 822 820 819
824 824 825 826 826 826 827 828 828 828 829 829 830 831 831 832 833 834 834 835 835 835 836 838 839 840 841 841 841 841 841 841 841 841 841 840 840 839 839 839 839 838 838 837 837 837 837 838 838 838 838 838 838 838 838 838 838 838 838 838 838 838 838 838 838 838 837 837 837 837 836 835 834 833 832 831 829 828 827 825 824 823 822 820 819
825 826 827 827 827 828 828 829 829 830 830 831 832 833 833 834 835 835 836 836 836 837 838 839 840 841 841 841 841 841 841 841 841 841 841 841 841 840 840 840 840 839 839 838 838 838 839 839 839 838 838 839 839 839 839 839 839 839 839 839 839 839 839 839 839 839 838 838 838 837 836 835 835 834 832 831 830 828 827 826 824 823 822 820 819
826 827 828 828 828 829 829 830 831 831 832 833 834 835 835 836 837 837 838 838 838 839 839 840 842 842 842 842 841 841 841 842 842 843 843 843 843 842 842 841 841 841 841 840 840 840 840 840 840 839 839 839 839 839 839 839 839 840 840 839 840 840 840 840 840 840 840 839 839 838 837 836 835 834 832 831 830 828 827 826 825 824 822 821 820
828 828 829 829 830 830 830 832 833 833 834 835 836 836 837 838 838 838 839 839 839 840 840 842 843 843 843 843 842 841 842 843 844 845 845 845 845 844 844 843 843 843 842 842 842 842 841 841 841 841 840 840 840 840 840 840 840 840 840 841 841 841 841 841 840 840 840 839 838 837 836 835 834 833 832 830 829 828 826 825 824 823 822 821 820
829 830 830 830 831 831 832 833 834 834 835 836 836 837 838 838 838 839 839 839 840 841 841 843 844 844 844 844 843 843 844 845 846 846 846 846 846 846 845 845 845 844 844 844 843 843 842 842 842 842 842 842 842 841 841 841 841 841 841 841 841 841 841 841 840 840 839 839 838 837 836 835 834 833 831 830 829 827 826 824 823 823 822 821 820
830 830 831 832 832 833 833 834 835 836 836 837 837 838 839 839 839 840 840 840 841 842 843 845 845 845 846 845 845 845 845 846 847 847 847 848 848 847 847 847 846 846 846 846 845 845 844 844 844 844 844 844 844 843 843 843 843 843 843 842 842 842 841 841 840 840 839 838 837 836 835 834 833 832 831 830 829 827 825 824 822 822 821 821 820
831 831 832 833 834 834 835 836 836 837 837 838 839 840 840 840 840 841 841 842 843 843 844 845 846 846 846 846 846 846 847 848 848 849 849 849 849 849 849 848 848 848 848 848 848 847 847 846 847 847 846 846 846 845 845 845 844 844 844 843 843 843 842 841 840 839 838 837 836 835 834 833 833 832 831 830 828 827 825 823 822 821 821 821 820
831 832 833 834 835 836 837 837 838 838 838 839 840 840 841 841 842 842 843 844 844 844 845 845 846 847 847 847 848 848 849 849 850 850 850 851 851 851 850 850 850 850 850 850 850 850 849 849 849 848 848 848 847 847 846 846 845 845 845 844 844 843 842 841 840 839 838 837 836 835 834 833 832 832 831 830 828 827 826 824 822 821 821 821 820
832 832 833 835 836 837 837 838 839 839 839 840 841 841 842 842 842 843 844 844 844 845 846 846 847 847 848 848 849 849 849 850 851 851 852 852 852 852 852 852 851 851 851 851 851 851 850 850 850 849 849 849 848 848 847 847 847 846 846 845 844 844 843 842 841 839 838 837 836 835 834 833 832 832 830 829 828 827 826 824 823 822 821 820 820
832 833 834 835 836 837 838 838 839 839 840 841 841 842 842 843 843 843 844 844 845 846 846 847 848 848 848 849 850 850 850 851 852 852 853 853 853 853 853 853 853 853 852 852 852 852 851 851 851 851 850 850 849 849 848 848 848 847 847 846 845 844 843 842 841 839 838 837 836 835 835 834 832 831 830 828 827 826 825 824 823 822 821 820 820
833 834 835 835 836 837 838 838 839 840 840 841 841 842 842 843 843 844 845 846 846 846 847 848 849 849 850 851 851 852 852 853 853 854 854 854 854 854 854 854 854 854 854 854 854 853 853 853 852 852 852 851 850 850 849 849 848 848 847 846 845 844 843 842 841 839 838 838 837 836 835 834 832 831 829 828 827 826 825 824 823 822 821 820 819
834 835 835 836 836 837 838 838 839 840 840 841 841 842 843 844 845 845 846 847 848 848 849 849 850 851 852 853 853 854 854 854 854 854 855 854 855 855 855 855 856 856 855 855 855 854 854 854 853 853 852 852 851 851 850 849 849 848 847 846 846 845 844 843 841 840 839 838 837 836 835 833 832 831 829 828 828 826 825 824 823 822 821 820 819
834 835 835 836 837 837 838 839 840 840 841 842 842 843 844 845 846 847 848 849 850 850 850 851 852 853 853 854 854 855 855 855 855 855 855 855 855 855 855 856 856 857 856 856 856 855 855 855 854 854 853 852 851 851 850 849 849 848 847 847 846 845 844 843 841 840 839 838 837 836 834 833 832 831 830 829 828 826 825 824 823 822 821 820 819
834 835 836 837 838 838 839 840 841 842 843 843 843 844 845 846 847 848 849 850 851 852 852 852 853 854 854 855 855 855 855 855 856 855 855 855 855 855 855 856 856 856 856 856 856 856 855 855 854 854 853 852 851 851 850 849 849 848 847 847 846 845 843 842 841 840 839 837 836 836 834 833 832 831 830 829 828 827 825 824 823 822 821 820 818
Wind_Speed
26 26 26 25 23 23 25 24 23 22 20 20 20 19 18 18 18 17 17 17 18 17 16 16 17 18 16 15 14 13 13 12 11 11 12 11 10 9 9 8 7 6 6 6 7 7 7 7 6 6 6 7 6 7 8 8 6 4 4 4 4 5 7 7 6 7 11 10 8 10 11 13 14 13 13 12 10 9 8 9 13 9 8 7 4
27 27 26 26 24 23 24 24 23 22 21 20 20 19 18 18 17 16 17 18 18 18 18 16 16 16 15 15 14 13 14 13 12 12 12 11 10 10 11 10 9 9 8 8 9 8 8 8 8 7 7 7 5 5 7 7 6 6 5 4 4 5 7 8 7 7 10 11 10 10 11 12 12 12 12 11 10 10 8 9 11 8 7 7 5
28 28 27 27 26 23 24 25 24 23 22 20 19 18 17 17 17 17 17 16 16 17 19 18 17 16 16 17 15 13 13 12 12 12 11 11 10 10 10 9 8 8 8 9 9 8 8 8 7 7 7 7 5 4 5 7 6 5 4 4 4 5 6 7 7 7 9 11 11 11 11 11 12 11 10 10 10 9 8 9 10 10 8 6 6
27 29 28 26 25 24 23 24 24 23 22 21 19 18 17 17 18 17 17 16 16 16 18 18 18 17 16 16 14 13 13 12 12 12 11 10 11 10 10 9 7 7 7 9 8 8 8 7 6 6 7 8 7 6 5 6 6 5 4 4 4 4 6 7 6 7 8 10 12 13 12 12 13 11 10 9 8 6 6 7 9 11 8 3 6
27 29 30 27 26 25 23 23 23 23 22 21 20 19 19 19 19 17 16 16 16 16 16 17 18 19 18 16 14 13 13 12 11 11 10 9 9 9 9 8 7 7 7 8 8 8 8 8 7 7 8 8 7 7 6 5 5 5 5 6 5 4 5 7 7 8 9 11 13 14 14 14 14 12 9 8 7 7 7 7 8 9 7 2 4
28 30 31 28 26 26 23 23 23 23 24 22 21 21 21 20 19 18 18 16 15 16 17 16 17 17 18 18 16 13 13 12 11 10 9 9 8 7 6 6 6 7 7 7 7 8 7 8 8 7 7 7 7 8 7 5 4 5 6 7 7 5 5 6 8 8 10 11 12 14 16 15 14 13 10 7 9 9 9 9 8 8 7 4 4
26 30 33 29 27 26 24 24 24 23 23 22 22 21 18 17 18 18 19 17 14 15 17 18 19 17 18 19 17 15 13 12 12 10 8 8 8 6 5 4 3 5 6 6 6 7 6 6 6 6 8 8 6 7 7 5 4 6 7 7 7 7 7 7 8 9 10 12 13 15 17 16 15 14 12 9 10 12 12 11 11 10 8 7 6
25 29 32 29 27 26 23 22 21 21 21 20 20 19 14 13 16 17 17 17 15 13 12 15 17 14 12 11 9 9 12 11 11 10 8 8 8 6 5 4 3 4 4 4 4 4 5 6 6 7 8 7 6 7 7 7 8 8 7 6 6 7 8 9 9 10 12 13 15 16 17 17 17 16 14 12 13 13 12 11 12 12 11 10 9
25 29 32 29 27 25 23 21 19 18 19 19 19 19 15 11 12 12 13 14 13 11 9 9 11 12 10 8 4 7 11 10 10 10 9 8 8 7 6 5 4 4 4 4 4 4 5 6 5 6 6 4 4 6 6 7 9 9 8 8 8 9 10 11 11 13 13 14 16 17 17 18 18 17 16 15 14 13 13 13 14 14 13 13 12
26 27 28 28 27 25 22 21 19 17 16 16 18 20 17 13 10 8 10 11 10 11 12 10 9 11 13 12 8 9 11 11 11 10 9 9 9 8 7 6 5 6 6 5 4 3 4 4 3 3 2 2 3 4 6 6 7 7 8 9 9 10 11 11 12 13 13 14 16 17 16 17 18 17 17 17 15 14 14 14 15 15 13 13 12
25 29 29 28 28 27 26 24 21 17 14 12 15 17 17 16 13 9 8 7 5 9 12 12 11 10 12 13 11 10 11 11 11 11 11 11 11 9 7 4 3 5 5 3 1 1 3 3 2 2 3 4 4 5 6 7 7 8 9 9 9 9 10 11 13 13 14 16 17 16 16 17 19 18 17 16 16 17 16 15 15 15 13 11 9
4 13 20 21 15 11 15 19 19 18 16 13 13 14 15 16 16 12 9 7 5 6 9 11 12 11 12 14 14 13 13 12 11 12 11 11 11 9 7 4 2 4 2 3 2 1 2 2 2 3 5 6 7 8 9 9 10 11 12 12 11 9 9 11 13 15 16 17 18 17 17 18 19 18 16 15 15 16 16 14 14 14 13 12 10
3 9 3 9 8 5 4 4 8 11 14 14 14 15 15 15 16 15 12 10 9 8 7 9 10 11 11 14 14 14 13 12 11 10 9 9 8 6 6 4 1 4 2 2 1 1 0 2 1 4 6 8 9 11 11 12 13 14 15 16 15 14 13 12 13 14 14 15 16 17 17 17 17 18 18 17 17 18 17 15 13 14 14 15 15
13 4 8 5 10 8 6 7 8 9 11 12 12 13 14 15 15 14 12 11 11 9 8 9 11 13 13 14 14 13 12 11 9 8 8 7 7 5 4 3 2 2 2 1 1 2 2 1 3 5 7 8 9 11 12 13 15 16 17 17 16 15 13 11 10 10 9 9 10 13 13 14 15 17 18 18 19 20 19 17 15 14 13 14 16
14 11 5 3 9 13 15 16 14 10 10 11 12 12 12 12 12 12 11 11 11 11 11 12 14 16 16 15 15 14 12 10 9 8 8 7 7 6 5 4 3 2 2 2 1 1 2 2 3 4 6 8 10 12 14 15 15 16 16 15 14 12 9 7 7 7 7 8 9 12 14 14 15 16 17 16 16 18 19 18 16 15 14 14 16
12 13 14 16 17 16 15 16 15 12 11 13 15 13 11 9 9 11 12 12 12 12 13 15 16 18 18 16 15 15 13 10 9 8 7 7 6 6 6 6 6 6 6 5 4 3 3 3 3 4 7 10 11 13 13 14 14 14 14 14 12 9 6 6 7 9 13 14 15 16 18 18 18 17 17 17 17 17 18 18 17 16 15 14 14
15 15 15 19 19 16 15 16 16 14 13 13 12 11 9 7 8 11 12 12 14 15 16 18 19 19 18 17 16 15 13 10 8 7 7 7 7 8 9 9 9 10 10 9 7 6 5 5 5 6 9 11 12 12 12 12 13 13 13 12 10 8 7 9 11 13 14 14 14 15 15 15 15 14 14 15 15 15 14 15 15 13 11 9 10
15 16 15 16 13 11 14 16 14 12 10 9 8 6 6 5 6 8 10 10 13 14 15 18 21 20 19 17 16 16 14 11 9 8 7 7 8 9 9 9 10 10 11 10 7 6 6 6 6 8 10 10 10 10 10 10 11 11 11 11 11 11 12 13 13 13 13 13 13 14 14 12 13 13 13 12 11 11 12 12 12 11 9 8 8
17 18 15 12 7 5 9 13 12 10 8 6 5 4 4 5 3 3 6 9 11 12 13 18 20 20 19 18 17 17 17 16 14 14 14 12 12 12 10 10 11 11 12 11 7 6 6 5 7 9 10 9 9 8 9 10 10 11 11 12 12 13 14 16 16 17 18 17 18 18 17 15 14 14 13 13 12 11 11 11 10 10 11 10 9
18 16 12 9 6 5 8 10 10 9 8 7 6 4 4 4 2 1 4 9 14 15 16 19 21 20 19 19 19 18 18 17 15 16 17 16 15 15 14 13 12 11 11 11 10 7 6 5 8 9 9 8 8 9 10 11 13 14 15 15 14 14 16 17 18 18 19 19 19 20 18 17 15 14 14 14 12 11 11 11 10 10 11 11 11
14 11 11 12 12 9 10 11 12 12 10 9 9 9 8 7 6 7 10 15 21 23 21 18 20 21 20 20 20 18 16 15 14 14 15 15 15 15 14 13 11 9 8 9 8 7 5 5 8 8 7 7 8 9 11 13 15 16 17 15 14 14 16 18 20 19 17 18 19 19 19 18 17 16 16 15 12 8 7 8 8 8 8 9 10
16 13 14 16 15 14 15 16 17 17 16 16 17 19 18 17 17 19 20 22 25 27 24 21 20 21 20 19 20 19 16 14 15 15 15 15 16 16 15 13 11 9 9 8 7 5 4 5 7 7 5 6 8 8 10 12 13 15 15 15 14 14 15 19 21 20 18 18 20 21 21 21 20 19 19 18 14 10 7 5 3 3 3 4 5
24 21 20 19 18 18 20 20 21 21 21 21 22 22 21 21 21 22 23 25 27 28 27 24 20 19 17 15 16 18 17 15 15 14 14 14 15 14 13 11 9 9 9 8 5 4 4 5 6 3 2 4 5 6 8 9 9 10 12 12 13 13 14 18 21 21 21 22 22 23 23 22 21 19 19 18 15 12 9 7 6 6 7 6 5
28 26 25 23 23 23 23 22 22 22 22 23 23 23 21 20 21 21 23 26 28 27 26 23 19 16 15 14 14 15 16 16 14 12 12 12 11 9 7 6 7 8 7 5 3 2 3 4 4 1 1 3 4 5 6 6 7 8 9 11 14 14 14 18 21 23 25 25 23 21 22 22 21 20 18 15 14 12 10 9 8 7 7 8 8
28 27 26 26 26 27 26 26 25 24 24 25 26 25 24 23 23 23 23 24 24 22 21 21 19 16 15 15 15 13 13 13 11 9 10 11 9 7 5 4 5 6 4 3 1 3 4 5 4 2 2 1 2 3 4 6 7 8 10 14 17 18 19 21 22 24 26 25 23 21 21 21 21 20 17 14 13 12 11 10 9 8 7 7 7
28 27 28 27 27 28 28 27 25 24 25 25 24 23 23 22 22 21 22 22 20 19 18 17 15 14 14 14 14 12 11 10 10 11 11 11 11 9 8 7 6 4 3 3 4 5 5 5 4 3 3 2 1 2 3 5 8 10 13 17 19 20 22 24 25 25 25 24 23 23 22 20 20 20 20 18 16 15 12 10 10 11 10 10 9
28 28 28 26 25 26 26 24 23 22 22 22 21 19 19 19 19 18 18 19 18 16 15 13 12 13 13 13 13 12 12 12 13 13 13 13 13 13 11 10 8 6 6 7 7 7 7 5 3 3 5 5 4 4 4 5 9 14 17 17 18 18 19 22 23 24 23 23 23 23 22 21 21 21 22 21 20 19 16 14 13 14 14 13 13
27 26 25 24 24 25 25 25 24 24 23 23 23 22 22 21 20 18 16 17 17 16 15 13 13 14 14 12 12 13 14 14 15 15 15 15 15 14 13 12 11 11 12 12 12 12 12 11 8 6 3 2 2 2 6 11 15 17 17 18 19 19 18 19 20 21 22 21 22 23 24 24 24 23 23 22 20 20 20 18 16 15 14 13 14
26 25 24 23 23 24 25 26 25 25 25 25 25 24 23 22 22 20 18 17 16 15 14 14 13 13 12 12 12 14 15 15 15 15 15 15 14 14 13 13 13 14 15 15 15 16 17 18 18 16 14 13 13 14 17 18 17 17 18 20 21 21 20 20 21 21 21 21 21 22 24 24 24 23 23 23 20 19 21 20 16 15 15 15 15
25 24 23 23 22 23 24 25 25 26 26 26 25 25 23 21 20 20 19 17 15 13 14 14 13 12 13 14 13 13 14 13 13 13 13 13 13 13 12 12 13 14 16 17 19 19 20 22 24 23 22 22 21 20 20 19 18 19 21 22 23 22 22 22 21 20 20 20 20 21 23 23 23 22 23 24 22 20 21 21 18 16 16 16 16
26 24 24 24 23 23 23 24 25 25 25 25 25 25 24 22 20 19 18 17 16 15 16 16 14 13 14 15 14 14 13 12 12 12 12 12 11 11 10 11 12 13 15 18 21 21 21 23 24 24 24 24 22 21 21 21 21 21 21 21 22 22 21 21 20 19 19 18 18 20 21 20 20 21 21 22 23 21 21 23 22 19 17 17 17
25 24 25 24 23 23 23 22 23 23 23 23 23 23 23 22 20 18 18 18 18 17 17 16 15 15 15 16 15 14 14 13 13 12 12 11 11 10 10 12 12 11 12 16 19 20 21 22 22 22 22 22 21 20 20 20 19 19 20 20 20 20 20 20 19 18 17 16 17 20 20 18 18 20 20 21 22 22 22 23 23 22 21 19 19
22 21 21 21 20 19 19 18 18 18 18 18 19 18 19 20 19 17 16 16 16 16 15 14 14 15 15 15 14 13 13 13 13 12 12 12 12 10 10 13 13 10 9 12 15 17 19 20 19 19 19 19 18 18 18 18 17 17 18 18 17 16 17 18 19 18 16 14 16 18 19 18 18 19 19 19 19 20 22 23 23 23 23 21 21
22 21 21 20 19 19 17 16 15 14 12 12 12 12 12 14 16 16 15 14 13 11 11 12 13 13 14 13 13 12 12 12 13 13 13 14 14 12 11 14 15 13 12 14 14 15 16 17 17 17 18 18 17 16 16 16 16 16 16 16 15 14 15 17 18 17 15 14 15 17 18 17 17 17 19 18 18 19 20 21 22 22 22 21 21
24 23 21 20 20 19 19 18 16 15 14 13 11 10 9 8 9 10 11 12 11 10 9 10 11 12 13 13 13 13 12 13 13 13 12 12 13 12 13 15 16 14 13 12 12 13 13 14 15 16 17 17 17 17 16 16 15 15 15 15 14 14 15 15 16 16 15 14 14 15 16 15 14 15 16 17 17 18 19 19 19 19 18 18 19
23 21 19 18 17 17 17 16 15 16 17 17 16 16 16 14 13 11 9 8 6 7 8 9 10 11 12 13 14 14 14 14 15 14 12 10 10 10 11 12 12 12 11 10 8 9 11 12 13 14 14 15 16 16 15 15 13 12 13 14 13 14 14 13 13 13 13 12 12 13 14 13 13 13 14 15 16 16 17 17 17 17 17 17 18
21 19 17 17 17 17 16 16 16 15 16 18 18 19 20 20 20 19 17 14 11 8 8 9 11 11 11 12 13 14 14 13 13 13 12 11 11 11 11 10 10 10 11 11 9 10 13 13 12 12 13 13 13 13 12 11 11 11 12 12 12 12 12 11 11 12 12 12 12 13 14 14 13 13 14 15 15 16 17 17 17 17 19 18 18
18 17 15 15 16 17 16 17 18 17 17 18 19 19 20 20 20 19 19 19 19 17 15 14 14 13 12 12 12 12 12 11 11 11 12 13 14 14 14 13 12 12 14 14 11 12 14 13 12 13 13 13 12 11 10 11 12 12 12 12 12 12 13 13 13 13 13 13 14 14 14 14 14 14 14 15 16 17 18 18 17 17 18 19 18
16 16 16 16 17 18 17 17 18 19 19 20 19 19 18 18 17 17 17 17 19 21 20 18 15 13 11 13 14 13 15 18 18 19 19 20 20 19 18 18 18 17 17 15 12 12 13 13 13 14 14 12 11 11 11 12 13 13 11 10 10 12 12 13 13 13 13 13 13 13 14 14 13 13 13 14 16 18 19 18 18 17 17 18 18
15 14 15 17 18 17 16 16 18 19 19 19 18 17 16 15 14 15 16 16 17 17 17 17 15 14 14 17 18 19 22 24 24 24 24 24 23 22 21 21 22 21 20 18 16 16 16 16 15 15 14 13 12 13 12 11 11 11 10 10 10 12 12 12 13 13 13 13 13 14 15 15 14 13 12 12 15 17 16 16 17 17 16 17 17
14 14 16 18 18 17 16 16 17 17 16 16 16 15 14 12 11 11 13 15 17 17 18 20 21 21 21 21 20 20 23 24 24 24 24 23 23 24 24 23 22 22 22 21 20 18 17 16 15 14 13 13 13 13 12 10 9 10 10 10 10 11 11 12 12 13 13 14 15 16 16 16 16 14 11 11 14 16 14 14 16 17 16 17 17
14 16 18 19 19 18 17 17 15 14 14 14 13 12 12 13 13 14 16 18 20 21 22 22 22 23 23 22 21 21 23 24 24 24 24 24 24 24 24 23 21 20 20 20 19 17 16 14 13 12 12 12 12 11 10 10 10 10 10 11 11 12 12 13 13 14 16 17 17 17 15 15 15 12 10 11 14 15 14 14 16 17 17 18 17
13 14 15 16 16 16 16 15 13 11 11 12 12 12 15 18 19 19 19 20 21 22 23 22 22 22 23 23 23 23 23 23 23 23 24 23 23 23 23 22 20 18 18 18 17 16 15 14 14 13 12 12 12 11 10 10 10 10 10 11 12 13 14 14 15 16 18 19 18 15 13 12 12 11 11 13 15 15 14 15 16 17 17 18 19
12 13 12 13 14 14 13 12 10 9 10 12 13 14 15 17 19 19 19 19 20 21 21 21 21 21 21 21 22 22 22 21 20 21 21 22 22 21 20 19 17 16 16 16 16 15 14 14 13 12 12 11 10 10 10 9 10 10 10 11 12 13 14 15 16 16 17 17 15 13 12 12 11 11 13 14 15 15 15 15 15 16 17 18 19
15 15 15 14 14 12 11 10 11 12 13 15 15 15 14 14 15 16 16 16 18 19 20 20 20 19 19 19 20 21 21 19 18 18 19 19 20 19 17 16 16 15 15 15 14 14 13 13 12 12 11 11 10 10 10 10 10 11 11 12 13 14 16 16 15 15 15 14 13 12 12 12 12 11 12 14 15 15 15 16 15 15 16 18 18
15 16 16 15 13 12 10 10 11 12 13 14 14 13 13 14 15 14 14 15 18 20 20 20 19 18 18 18 18 19 18 18 17 17 17 17 17 17 16 15 14 14 13 13 13 12 12 12 11 12 12 12 11 11 11 11 11 12 14 15 15 15 15 15 15 14 13 13 13 14 14 12 11 12 13 14 14 15 15 16 16 16 16 16 17
12 14 15 13 12 11 10 10 11 11 10 10 12 12 13 16 18 17 16 15 17 18 18 19 19 18 17 16 15 15 16 16 15 15 15 14 14 15 16 15 14 13 13 14 13 13 13 13 12 13 13 13 13 13 13 13 13 14 15 15 15 15 15 16 16 14 11 11 13 15 14 12 11 12 13 14 15 16 16 16 16 16 16 16 16
10 11 11 13 13 12 10 10 11 11 10 11 14 16 16 17 18 19 18 16 16 16 16 16 16 16 16 15 14 12 12 12 12 11 11 11 11 12 13 14 13 12 13 15 14 14 14 14 13 13 13 13 12 12 11 12 13 15 15 15 15 15 15 16 15 13 11 11 13 14 13 12 12 13 14 15 16 17 17 17 17 16 16 17 17
11 10 11 12 13 12 11 12 13 13 12 13 14 15 16 15 15 16 17 17 16 15 14 13 13 14 14 14 13 12 10 10 10 8 7 6 6 8 9 11 12 12 13 14 14 13 12 12 12 12 11 9 9 9 10 10 12 13 13 13 14 15 15 15 14 13 12 12 13 13 12 12 13 14 15 16 16 17 16 16 16 17 17 17 18
12 12 12 12 11 10 10 11 11 11 12 13 14 14 14 14 12 12 14 15 15 15 15 14 13 12 11 11 11 11 10 9 8 8 7 6 6 6 7 8 10 10 11 12 11 10 10 11 11 10 9 8 9 10 9 10 11 11 10 11 14 16 16 16 15 14 13 13 12 12 12 13 15 16 17 17 17 17 17 16 17 17 17 17 18
10 11 12 12 12 11 10 10 9 9 9 10 12 12 13 12 11 11 12 12 12 14 15 15 14 13 12 11 10 10 9 8 7 7 7 7 7 8 9 9 8 7 7 7 7 8 9 9 10 8 7 8 9 9 8 9 10 11 11 13 15 17 18 18 17 15 14 12 11 10 11 14 16 16 17 17 16 16 16 16 16 17 17 18 18
Wind_Direction
198 199 199 200 201 201 202 204 205 206 207 211 213 211 211 215 214 214 216 217 216 209 202 204 209 207 209 214 214 217 218 210 213 223 226 228 230 233 241 251 255 257 265 269 274 281 284 293 306 309 312 312 318 332 329 324 321 312 308 305 287 261 253 246 233 262 290 301 299 294 302 317 325 329 328 323 326 325 318 347 357 338 306 313 297
198 198 198 199 203 202 201 204 206 208 211 215 215 212 214 217 217 216 216 216 215 209 204 205 208 207 209 212 212 217 218 211 212 220 224 225 228 234 240 249 254 252 253 258 265 276 284 291 301 301 303 313 328 344 340 335 327 313 305 297 287 272 266 266 256 261 289 302 305 303 312 324 327 331 333 325 326 330 328 344 358 357 325 305 281
199 198 197 199 203 204 201 203 206 209 212 217 217 215 216 218 220 222 220 218 218 212 207 206 206 209 211 208 210 215 214 212 214 216 221 226 223 227 238 247 254 252 253 258 265 279 290 294 301 303 305 315 329 337 338 338 336 329 314 296 289 279 266 266 264 263 282 297 302 305 315 324 325 327 329 323 323 332 338 334 339 357 356 304 266
200 197 197 199 202 205 202 200 202 206 211 215 217 217 218 219 223 226 223 222 223 217 211 210 209 211 210 206 209 217 216 213 209 210 219 222 215 223 242 255 255 254 257 262 270 283 292 297 299 303 308 313 317 320 329 340 336 328 315 296 284 278 264 256 266 275 279 286 296 306 315 320 321 325 326 319 316 318 327 325 323 342 1 311 258
202 198 197 199 202 205 204 200 200 205 210 214 216 218 220 222 223 224 222 222 223 217 212 212 212 212 213 213 210 208 208 203 199 205 215 217 220 234 251 258 260 264 263 264 275 287 295 304 304 305 311 313 315 320 332 344 328 315 315 298 279 277 262 252 270 284 278 280 293 306 315 317 318 325 330 321 319 318 315 318 318 326 342 324 251
203 199 196 198 200 204 204 201 203 208 211 213 216 218 220 220 219 218 217 218 219 218 214 210 212 216 217 216 211 204 201 199 199 207 214 218 228 239 247 254 263 270 268 267 284 297 305 312 310 307 311 312 319 327 333 340 315 305 319 305 278 266 257 258 277 284 274 278 289 297 307 313 314 319 324 313 311 314 309 309 315 322 329 318 266
203 197 195 196 198 201 204 203 204 207 211 214 217 221 221 217 216 215 212 213 216 218 217 216 216 217 214 211 208 206 205 202 204 211 216 219 224 226 235 257 271 271 272 278 292 297 302 313 315 307 299 293 303 326 332 325 301 303 320 314 279 258 255 262 274 276 272 277 283 289 298 305 303 305 309 301 295 298 296 298 307 318 324 318 292
198 192 191 194 196 199 203 205 206 207 212 218 220 224 227 216 215 217 213 215 219 218 221 222 214 206 206 218 220 205 198 198 205 213 216 218 223 224 231 250 276 285 290 296 302 298 292 298 306 307 303 294 293 313 316 297 285 287 294 295 278 267 269 271 273 274 274 275 279 285 291 294 294 294 294 288 284 289 293 293 300 311 319 318 309
192 188 188 192 196 200 202 206 211 213 216 218 215 219 226 219 214 217 216 220 222 213 209 213 207 199 204 225 231 190 190 200 206 211 215 217 222 225 227 238 255 267 279 284 296 311 306 302 308 313 313 306 289 292 292 284 285 288 288 285 281 280 281 281 280 281 278 273 277 283 285 285 288 289 286 283 283 291 299 296 296 307 314 315 317
190 187 189 193 197 201 204 207 210 210 209 208 207 210 215 214 206 197 206 219 218 202 196 194 196 203 206 211 208 186 187 197 200 205 215 217 215 216 221 232 246 260 275 283 290 308 313 319 336 333 302 277 274 279 280 283 293 304 311 309 303 299 295 290 286 287 285 280 280 284 282 279 283 286 284 283 283 287 294 293 294 303 310 313 320
191 190 192 196 200 201 204 208 210 210 206 202 200 202 206 208 204 187 182 192 184 179 188 190 190 189 187 192 201 197 194 197 197 205 217 218 214 211 207 217 274 297 289 275 241 292 312 324 321 289 277 285 295 295 293 298 305 313 321 324 321 318 313 302 292 290 292 290 287 287 285 283 288 292 290 287 286 285 288 287 287 294 300 303 305
200 200 192 186 186 193 197 201 205 207 211 211 204 201 203 205 207 202 186 177 181 175 170 174 180 176 171 180 192 199 204 209 209 211 218 222 221 218 209 210 354 19 65 138 149 277 343 12 312 286 295 300 303 306 307 308 311 315 320 322 322 319 318 314 306 301 299 293 287 288 289 289 293 296 295 295 295 294 292 286 281 285 288 285 279
10 345 3 141 132 58 56 169 191 196 205 214 212 208 208 209 211 211 199 189 200 202 178 171 179 177 176 183 189 191 197 203 206 207 211 212 208 203 202 202 43 28 43 108 131 251 107 62 335 302 304 304 307 313 316 317 319 321 323 323 322 317 313 314 312 308 303 294 289 291 293 293 296 296 295 295 296 295 291 284 280 282 283 281 278
195 289 356 87 152 164 169 188 198 196 199 208 212 210 210 210 208 208 203 195 198 197 182 177 180 177 179 185 187 185 184 185 184 184 187 186 179 174 166 144 96 10 337 355 355 251 245 280 297 304 313 320 327 329 327 328 327 326 327 327 327 327 325 318 310 305 303 298 297 299 297 296 297 297 296 296 295 292 286 280 280 283 283 280 276
189 195 236 228 183 181 186 194 196 195 196 202 208 209 207 206 203 200 196 193 194 189 176 171 173 175 180 185 184 178 174 174 173 174 177 174 168 165 150 133 120 80 38 32 12 293 295 307 308 326 342 345 343 336 331 330 329 330 331 331 335 345 345 329 318 317 313 308 305 302 300 299 300 301 301 300 298 291 284 279 279 282 284 282 272
155 169 204 217 209 197 195 200 203 205 206 207 208 205 196 190 191 188 179 170 169 166 164 170 178 179 178 179 175 167 164 167 169 171 176 174 171 168 159 151 141 116 97 87 88 89 62 48 42 14 358 349 341 336 333 333 333 334 334 334 343 356 343 312 312 317 315 312 310 307 304 302 302 303 304 301 295 291 290 291 290 285 282 280 279
147 158 193 212 213 209 206 209 211 210 212 216 214 206 195 188 192 193 179 158 154 159 162 169 176 176 172 172 169 159 149 150 157 161 165 168 168 165 158 152 138 118 105 98 99 98 80 59 41 11 352 345 342 339 336 337 337 338 339 342 351 354 331 314 313 314 317 322 327 325 318 312 311 312 313 308 296 288 292 296 296 291 277 266 273
141 157 186 202 204 206 210 213 214 210 213 225 229 221 208 202 214 218 201 172 166 174 169 162 163 166 165 163 159 148 135 128 132 135 136 146 151 148 145 141 133 119 106 99 101 98 77 50 20 3 354 350 349 349 350 351 350 352 354 356 0 360 354 351 351 355 3 7 5 0 351 343 337 331 330 328 314 300 297 296 296 294 277 254 254
138 157 176 185 167 151 185 199 204 202 196 196 204 208 191 174 180 212 196 177 179 184 169 153 149 150 149 145 141 133 122 116 118 118 111 109 114 117 117 115 115 115 106 96 92 83 66 36 7 2 1 1 7 13 19 21 22 27 27 23 23 25 25 21 17 15 16 13 11 8 4 1 357 348 341 338 333 322 310 302 301 294 276 261 257
131 141 152 168 169 156 159 163 162 156 147 145 154 165 173 175 173 120 131 142 146 144 141 140 134 126 123 123 119 115 110 106 110 114 106 96 93 97 99 96 97 104 104 97 87 73 54 19 2 3 5 16 34 45 52 55 57 56 51 46 43 39 32 25 19 15 11 8 8 6 3 5 6 359 350 340 332 325 316 307 305 298 283 272 268
128 133 143 156 163 155 138 129 124 121 125 132 128 117 108 102 102 111 113 114 116 112 106 108 111 109 106 101 94 89 88 87 88 91 88 79 74 75 79 80 82 90 100 102 96 79 52 10 356 359 10 37 56 65 67 68 68 64 57 52 46 37 29 22 18 15 12 10 12 11 10 15 20 19 14 5 352 346 338 324 309 297 291 283 274
141 144 144 146 143 130 118 116 115 116 120 121 115 109 109 110 113 118 117 111 107 103 98 96 98 97 94 91 85 79 73 71 71 72 75 75 71 68 65 66 72 79 86 94 95 77 43 2 347 349 22 57 64 65 65 67 69 65 59 52 43 35 31 26 24 26 27 24 25 24 23 27 32 35 37 34 31 38 44 33 13 354 350 325 287
131 129 127 126 123 118 115 113 112 111 112 113 111 111 113 115 116 116 115 110 105 103 102 98 92 89 88 87 83 76 72 69 64 61 63 67 67 66 63 63 72 79 80 82 77 49 17 353 343 345 49 63 55 56 59 60 61 59 55 47 37 33 34 33 32 34 34 30 28 28 29 32 34 36 41 44 47 54 59 59 62 65 64 68 86
115 115 114 112 110 110 109 108 106 106 108 108 109 110 112 113 113 112 111 108 106 105 102 97 95 97 99 94 84 75 70 68 60 51 50 52 57 66 70 71 81 85 82 79 70 16 341 334 332 316 123 75 56 51 46 42 43 47 46 39 33 35 42 41 36 35 33 28 26 29 32 35 36 36 39 43 46 48 50 52 57 62 70 75 76
108 108 108 108 107 104 102 100 100 101 104 105 106 107 109 110 110 110 109 107 106 106 103 100 102 104 97 90 88 83 73 67 63 59 57 56 62 72 73 67 75 77 67 52 344 301 304 307 304 268 193 108 49 38 40 35 29 33 43 48 49 52 51 45 40 39 35 28 26 29 32 35 35 35 35 38 42 45 46 47 46 42 35 30 26
109 109 108 107 106 102 99 98 98 99 98 98 99 102 105 107 109 110 111 109 109 110 109 106 104 100 96 96 100 97 86 75 72 70 66 63 62 63 60 59 61 52 25 4 335 323 326 319 298 259 232 236 348 42 36 24 26 45 60 63 61 59 53 46 43 41 36 31 31 33 33 34 34 31 30 31 31 32 32 30 25 18 9 2 1
108 107 105 102 100 100 100 100 101 102 100 98 99 101 104 108 111 112 113 111 108 108 108 104 99 101 107 107 98 88 79 72 67 63 60 58 57 55 54 53 52 46 39 31 20 14 12 2 332 285 263 259 265 285 319 7 51 69 70 63 57 54 52 50 47 42 37 34 34 34 32 31 30 28 26 27 26 23 22 19 13 8 2 357 355
102 101 101 101 99 100 103 104 105 106 106 106 105 102 103 107 109 109 111 112 110 109 107 103 102 106 107 99 86 78 72 65 58 55 52 50 51 50 50 51 49 45 41 36 33 31 28 28 30 24 359 323 312 0 57 75 80 76 66 56 51 51 51 49 46 42 38 37 36 33 30 26 24 22 22 23 21 17 15 13 10 7 3 359 358
98 98 99 100 100 102 105 107 108 108 107 105 101 96 95 97 99 100 102 106 108 107 103 100 101 102 98 90 81 75 68 59 53 49 45 43 44 43 43 47 48 43 36 30 28 32 37 45 52 58 66 74 81 83 84 85 82 73 63 57 54 53 52 51 48 43 38 36 32 28 23 20 18 17 17 17 16 12 9 8 6 3 0 357 358
99 99 100 100 102 103 103 105 107 108 106 102 98 95 92 91 92 95 97 98 98 93 88 88 90 88 86 81 74 66 61 56 51 46 41 39 39 37 37 42 44 43 40 35 35 43 53 60 63 67 73 78 81 81 80 80 80 74 66 60 59 58 54 48 44 38 32 28 21 17 16 16 13 10 8 8 9 9 10 9 6 2 359 354 352
99 100 103 105 107 107 106 106 107 105 104 102 100 99 97 94 93 93 93 93 90 83 79 79 79 75 73 73 69 64 59 54 48 44 40 38 36 36 40 40 38 40 43 43 48 59 66 67 66 68 72 75 75 72 71 72 74 71 66 61 58 53 46 39 32 28 28 26 19 15 17 18 12 6 4 4 4 6 13 15 13 11 9 7 7
106 108 110 110 111 110 109 109 109 107 106 104 102 100 101 100 98 96 94 93 90 86 84 83 82 80 76 72 69 65 60 54 49 44 40 37 36 40 44 36 28 31 40 46 57 69 73 70 69 70 70 71 71 68 66 65 65 64 62 58 49 40 38 36 32 32 36 33 22 18 20 18 12 8 7 6 4 6 11 14 14 13 10 8 9
107 110 112 112 112 111 111 110 109 109 110 107 103 101 101 103 106 107 106 104 100 96 95 94 90 85 80 73 67 63 59 53 49 46 42 38 39 48 49 36 27 26 30 42 61 76 77 74 73 71 70 71 71 70 70 69 67 61 55 49 42 36 35 34 31 34 37 28 16 15 16 13 8 6 6 6 5 7 10 12 13 14 12 8 4
99 101 102 104 102 101 102 102 99 99 106 114 117 115 112 114 117 119 120 119 115 112 111 107 99 91 82 73 65 62 57 50 47 48 46 42 43 49 51 44 43 45 43 47 65 79 78 74 76 77 77 78 77 78 79 76 69 61 52 45 41 36 31 27 26 26 26 22 17 17 15 11 8 9 10 10 10 13 14 12 9 9 9 6 360
93 94 94 94 93 94 95 90 83 80 83 92 104 112 115 121 127 131 135 133 128 128 127 115 102 94 83 69 59 55 50 44 43 43 42 43 45 45 44 46 46 44 38 42 59 72 73 75 81 83 82 80 80 81 79 71 62 54 45 40 38 34 29 25 22 20 19 20 19 14 10 9 10 12 14 16 18 18 13 7 2 0 0 356 351
91 88 84 83 88 95 94 84 75 74 76 78 80 82 83 83 83 91 109 122 128 141 144 128 110 99 84 65 54 49 43 39 38 35 33 35 34 26 25 29 27 26 27 29 44 68 79 82 82 80 77 75 75 75 71 65 57 47 38 36 35 32 26 20 18 20 24 25 22 19 19 21 20 18 18 19 17 12 6 0 358 356 353 346 339
96 92 89 88 90 92 88 80 77 80 82 80 78 77 75 72 70 72 74 73 75 99 131 126 109 98 82 64 54 48 40 36 35 32 28 25 18 9 4 358 357 16 37 36 39 70 86 86 81 76 72 70 72 72 68 62 57 53 52 54 53 49 47 46 45 45 47 45 41 38 37 33 29 25 21 16 9 3 359 356 355 353 353 347 337
100 97 100 104 99 92 86 81 80 83 84 83 82 81 75 70 68 70 67 65 72 91 108 110 103 100 89 71 59 52 44 37 32 29 29 32 34 34 32 24 20 33 44 46 54 78 87 87 87 85 82 81 81 78 70 64 62 66 73 78 75 73 73 72 66 58 54 49 44 39 34 29 27 25 20 12 5 0 357 355 353 352 355 354 348
103 97 99 105 104 98 91 84 81 82 83 83 82 80 74 68 67 69 66 65 77 97 109 110 107 106 87 62 54 55 53 48 44 42 45 49 51 50 48 47 48 48 47 52 70 87 90 90 91 89 86 85 82 75 68 65 65 69 76 77 71 66 63 59 53 47 41 35 30 26 22 19 17 15 12 9 7 4 1 2 2 1 3 5 4
103 95 95 102 105 101 93 85 83 84 84 83 81 79 78 78 74 71 70 68 73 90 105 103 92 82 67 58 61 66 64 58 53 51 51 53 54 54 53 54 56 57 58 63 73 81 82 83 85 84 81 77 69 64 62 59 57 59 61 59 56 51 44 38 34 31 26 19 12 8 5 4 3 360 358 2 6 4 3 7 9 8 10 12 9
97 92 95 101 103 102 96 89 85 84 83 86 87 84 81 82 78 75 78 74 67 73 87 85 73 67 64 62 65 69 67 63 60 57 55 55 55 55 56 58 61 63 66 69 72 74 76 77 77 77 77 72 67 65 64 58 53 52 49 47 45 41 34 27 24 22 18 13 7 0 356 354 354 351 350 359 4 1 359 6 10 9 9 9 6
97 92 94 97 97 96 93 89 87 87 86 85 85 79 72 72 74 77 80 75 68 71 81 80 72 68 67 64 62 65 66 65 64 61 59 59 58 58 59 61 62 64 66 69 71 74 75 76 75 75 74 74 74 74 70 61 53 46 40 38 37 35 32 28 22 16 11 7 3 359 355 352 350 347 350 359 3 0 359 3 7 7 7 5 2
98 93 92 93 90 88 89 89 89 91 90 85 80 74 71 74 78 80 78 72 69 74 81 81 75 73 71 67 66 66 65 65 64 63 60 59 58 58 59 60 60 61 62 64 68 71 72 73 72 70 69 69 69 68 65 60 52 44 37 33 31 28 24 19 13 7 3 1 358 358 360 357 351 349 355 358 360 2 5 6 5 4 1 359 356
111 103 100 100 94 89 90 90 86 86 92 94 89 80 74 76 79 79 76 72 71 75 80 79 76 73 69 67 67 68 66 66 66 64 61 59 55 53 53 53 53 52 50 50 54 59 61 63 63 62 61 60 58 56 55 50 43 38 34 28 25 22 19 15 10 4 0 359 1 6 8 3 358 359 1 359 358 2 4 1 359 359 358 354 352
123 115 111 108 105 102 98 90 82 83 89 93 90 82 77 79 81 78 76 75 76 78 79 78 76 73 68 65 68 70 68 66 64 62 61 61 58 54 52 48 43 41 39 36 34 35 39 43 45 47 49 49 47 45 43 37 32 31 29 28 26 25 21 17 11 5 3 6 12 15 8 1 359 0 357 355 357 359 357 353 353 356 353 348 345
124 125 121 112 104 103 103 95 88 87 86 86 88 85 82 85 86 83 82 84 82 79 79 79 76 73 70 69 71 72 70 65 60 56 55 57 58 58 57 50 40 36 36 33 27 26 31 36 40 44 46 43 38 35 33 32 32 31 29 28 27 25 23 18 11 7 9 13 15 11 3 357 359 1 357 355 357 355 350 349 350 350 345 341 338
112 121 128 126 117 111 108 108 107 102 92 90 95 91 84 84 84 81 80 83 81 79 80 79 76 74 74 72 69 68 66 64 60 55 51 50 53 57 59 57 49 41 37 35 32 32 34 37 42 47 46 42 39 38 35 32 30 26 24 23 23 22 21 17 11 10 11 12 10 8 3 358 358 1 1 1 360 354 350 349 348 345 342 340 337
117 109 114 125 126 117 107 107 109 104 97 97 97 88 81 81 81 75 73 77 78 78 81 82 80 79 79 76 70 66 64 63 63 60 53 46 41 41 45 49 47 39 33 30 30 32 32 34 40 49 51 50 50 47 39 27 18 14 15 20 24 22 19 15 11 8 5 2 3 6 5 2 3 4 3 1 357 352 349 347 344 342 341 340 338
115 102 95 104 108 99 87 89 94 93 91 96 96 87 81 82 81 74 72 75 76 77 82 90 91 89 86 84 82 80 79 80 83 81 70 52 33 21 23 31 33 30 26 23 22 25 31 32 35 42 48 45 37 30 23 15 11 11 16 24 25 19 14 11 8 3 359 356 357 1 5 8 10 8 2 357 353 350 348 345 340 338 339 338 337
100 99 94 94 97 91 83 84 87 84 86 94 96 91 86 86 86 82 79 77 76 79 88 97 99 95 92 93 94 93 92 95 95 90 85 81 70 56 52 51 46 39 35 31 28 29 33 32 29 31 31 24 17 18 20 19 19 20 24 23 16 10 8 7 4 359 357 355 355 358 6 13 12 6 360 355 351 348 347 344 340 339 341 340 337
102 102 97 96 100 99 93 92 94 92 92 101 106 101 94 93 99 99 92 84 81 84 89 94 97 96 94 96 97 94 92 91 86 81 84 87 79 70 70 68 61 53 49 44 38 36 34 28 23 23 22 16 16 23 28 25 21 20 19 13 7 4 6 6 3 359 356 354 350 354 8 16 13 5 359 357 356 354 353 351 348 347 348 348 344